Lid_Strength_Index
5 5 5 5 6 7 9 12 11 7 8 11 14 14 12 10 9 9 9 10 11 12 11 13 13 12 10 6 8 14 13 15 15 13 12 12 13 13 13 14 17 18 16 15
5 5 5 5 6 7 9 12 11 7 9 14 14 12 11 10 10 11 10 11 10 10 12 14 11 9 7 7 8 10 12 15 15 14 13 12 14 14 16 16 17 17 16 14
5 5 5 5 6 6 10 10 12 11 10 12 13 13 13 11 8 9 9 10 10 10 11 11 11 10 8 7 8 6 7 16 15 13 13 13 14 13 14 15 16 17 16 14
4 4 5 5 6 6 9 11 13 12 14 13 13 14 12 11 11 9 9 10 10 11 14 13 12 11 10 8 6 9 11 15 16 13 12 11 11 10 13 14 13 15 12 14
4 4 4 4 5 6 9 11 12 11 13 13 13 13 13 10 10 10 10 10 10 11 14 13 13 12 13 12 11 11 12 13 13 13 12 10 10 10 11 12 14 14 15 14
3 4 4 4 5 6 10 10 10 10 12 12 13 13 11 9 9 8 7 8 10 11 11 10 10 11 10 11 13 12 13 13 14 15 12 12 13 11 11 11 13 13 14 12
3 3 3 3 3 5 8 9 9 11 13 11 11 10 9 9 9 9 7 8 9 7 7 9 11 12 11 11 11 10 12 13 14 14 14 16 12 10 9 10 10 11 12 11
2 2 2 2 2 3 6 7 8 10 13 10 10 10 9 9 9 9 8 7 7 6 9 11 12 14 12 11 9 9 10 12 13 16 16 13 10 9 9 11 9 10 12 8
2 2 2 1 2 2 6 7 7 9 12 13 9 10 10 12 12 11 9 7 7 8 11 12 14 14 13 12 11 11 10 10 12 15 16 17 11 8 7 9 13 8 7 8
2 2 1 1 1 2 6 7 7 8 12 11 11 12 12 10 11 12 11 9 10 9 11 13 13 13 10 13 14 13 11 12 14 15 16 13 9 7 7 13 11 8 7 7
2 2 1 1 1 1 5 7 7 8 9 9 8 8 10 10 11 13 11 11 11 11 12 13 13 14 12 13 12 12 12 13 14 15 17 16 8 8 12 9 7 7 7 7
1 1 1 1 2 2 3 8 6 4 7 8 6 5 4 5 6 10 11 12 12 11 13 13 12 13 12 13 16 10 14 12 13 12 12 9 7 8 7 6 7 6 7 6
1 1 2 2 2 2 1 4 6 6 8 8 9 7 4 4 4 4 9 9 9 10 10 12 12 13 11 15 13 12 11 9 12 11 10 9 8 6 6 6 6 7 6 5
2 2 2 2 2 1 1 3 3 4 6 9 10 5 6 4 4 4 4 5 6 7 8 10 12 13 10 12 11 11 9 10 11 11 9 8 7 6 6 6 6 6 6 6
2 2 2 2 1 1 3 3 3 4 7 10 9 6 5 6 6 5 4 6 8 8 9 11 11 10 9 9 11 11 9 11 12 13 8 9 8 6 5 6 6 6 5 5
2 2 1 1 1 2 5 8 3 2 2 6 11 8 7 6 6 6 6 6 7 8 9 9 8 7 8 10 13 8 8 7 7 9 7 6 6 5 5 5 5 6 6 6
3 1 1 1 1 4 8 8 4 3 5 7 10 12 8 6 7 6 6 7 7 7 9 9 9 9 7 10 12 9 9 8 7 6 6 7 6 7 5 5 5 6 6 7
1 1 1 1 2 3 5 5 3 3 6 6 10 11 10 6 8 8 7 7 7 8 8 9 8 7 9 11 10 8 7 7 6 6 5 6 5 5 5 4 5 6 7 8
2 2 1 4 4 7 6 1 2 4 6 10 9 11 12 6 7 6 7 7 10 7 9 9 8 9 12 10 9 8 7 7 7 6 5 5 6 6 5 5 5 6 7 7
2 4 5 6 4 1 1 5 7 6 6 7 10 7 10 8 9 10 8 7 10 12 9 7 10 10 7 7 7 8 6 6 5 7 8 6 7 6 6 5 5 5 5 5
6 6 5 3 1 3 8 9 10 8 9 10 9 9 10 8 11 12 8 10 10 13 11 11 12 12 8 6 5 7 7 5 5 5 5 5 5 5 5 5 4 4 4 4
4 5 5 5 5 6 11 11 8 11 11 9 9 9 8 8 7 9 8 11 10 14 8 10 13 10 7 7 7 6 7 7 5 4 5 4 4 4 4 4 4 4 4 4
5 5 6 6 7 12 12 13 11 11 9 9 9 9 7 8 8 9 9 12 13 8 12 13 11 8 7 6 7 7 8 7 4 4 4 4 4 4 4 4 4 3 4 3
6 8 13 11 11 10 10 10 9 7 9 8 7 9 9 8 11 10 12 10 10 13 15 14 10 8 7 6 7 7 6 5 5 5 4 4 4 4 4 4 3 4 4 4
7 9 14 10 7 6 6 7 7 7 6 7 8 8 8 9 11 10 11 12 14 13 13 10 8 7 6 6 6 5 5 5 5 5 4 4 4 4 4 3 3 3 3 4
8 9 9 7 8 8 8 8 8 6 6 6 8 10 10 11 10 12 13 14 15 13 10 8 6 6 6 6 5 5 5 5 5 4 4 4 4 5 5 4 4 3 3 4
8 9 7 7 7 8 8 8 7 4 7 10 9 12 12 9 12 12 10 12 11 9 8 6 6 6 6 5 5 5 4 4 4 4 4 4 4 5 5 5 4 4 4 3